Year,Month,Day,Hour,Minute,Value (Times are PST for temperature in C)
2019,03,30,00,00,9.10
2019,03,30,00,01,9.00
2019,03,30,00,02,9.00
2019,03,30,00,03,8.90
2019,03,30,00,04,8.90
2019,03,30,00,05,8.90
2019,03,30,00,06,8.90
2019,03,30,00,07,8.90
2019,03,30,00,08,8.80
2019,03,30,00,09,8.80
2019,03,30,00,10,8.80
2019,03,30,00,11,8.80
2019,03,30,00,12,8.80
2019,03,30,00,13,8.70
2019,03,30,00,14,8.70
2019,03,30,00,15,8.60
2019,03,30,00,16,8.60
2019,03,30,00,17,8.50
2019,03,30,00,18,8.50
2019,03,30,00,19,8.40
2019,03,30,00,20,8.40
2019,03,30,00,21,8.30
2019,03,30,00,22,8.30
2019,03,30,00,23,8.30
2019,03,30,00,24,8.30
2019,03,30,00,25,8.20
2019,03,30,00,26,8.20
2019,03,30,00,27,8.20
2019,03,30,00,28,8.30
2019,03,30,00,29,8.30
2019,03,30,00,30,8.30
2019,03,30,00,31,8.30
2019,03,30,00,32,8.30
2019,03,30,00,33,8.30
2019,03,30,00,34,8.20
2019,03,30,00,35,8.20
2019,03,30,00,36,8.30
2019,03,30,00,37,8.30
2019,03,30,00,38,8.30
2019,03,30,00,39,8.30
2019,03,30,00,40,8.30
2019,03,30,00,41,8.20
2019,03,30,00,42,8.20
2019,03,30,00,43,8.20
2019,03,30,00,44,8.20
2019,03,30,00,45,8.20
2019,03,30,00,46,8.10
2019,03,30,00,47,8.10
2019,03,30,00,48,8.10
2019,03,30,00,49,8.10
2019,03,30,00,50,8.10
2019,03,30,00,51,8.10
2019,03,30,00,52,8.10
2019,03,30,00,53,8.10
2019,03,30,00,54,8.10
2019,03,30,00,55,8.10
2019,03,30,00,56,8.10
2019,03,30,00,57,8.10
2019,03,30,00,58,8.20
2019,03,30,00,59,8.20
2019,03,30,01,00,8.20
2019,03,30,01,01,8.20
2019,03,30,01,02,8.20
2019,03,30,01,03,8.20
2019,03,30,01,04,8.30
2019,03,30,01,05,8.30
2019,03,30,01,06,8.40
2019,03,30,01,07,8.40
2019,03,30,01,08,8.50
2019,03,30,01,09,8.50
2019,03,30,01,10,8.50
2019,03,30,01,11,8.50
2019,03,30,01,12,8.40
2019,03,30,01,13,8.30
2019,03,30,01,14,8.30
2019,03,30,01,15,8.30
2019,03,30,01,16,8.30
2019,03,30,01,17,8.30
2019,03,30,01,18,8.30
2019,03,30,01,19,8.30
2019,03,30,01,20,8.30
2019,03,30,01,21,8.40
2019,03,30,01,22,8.40
2019,03,30,01,23,8.40
2019,03,30,01,24,8.40
2019,03,30,01,25,8.40
2019,03,30,01,26,8.40
2019,03,30,01,27,8.40
2019,03,30,01,28,8.40
2019,03,30,01,29,8.40
2019,03,30,01,30,8.40
2019,03,30,01,31,8.40
2019,03,30,01,32,8.40
2019,03,30,01,33,8.40
2019,03,30,01,34,8.40
2019,03,30,01,35,8.40
2019,03,30,01,36,8.40
2019,03,30,01,37,8.40
2019,03,30,01,38,8.40
2019,03,30,01,39,8.40
2019,03,30,01,40,8.40
2019,03,30,01,41,8.30
2019,03,30,01,42,8.30
2019,03,30,01,43,8.30
2019,03,30,01,44,8.30
2019,03,30,01,45,8.30
2019,03,30,01,46,8.20
2019,03,30,01,47,8.20
2019,03,30,01,48,8.10
2019,03,30,01,49,8.10
2019,03,30,01,50,8.00
2019,03,30,01,51,8.00
2019,03,30,01,52,7.90
2019,03,30,01,53,7.90
2019,03,30,01,54,7.80
2019,03,30,01,55,7.80
2019,03,30,01,56,7.80
2019,03,30,01,57,7.80
2019,03,30,01,58,7.70
2019,03,30,01,59,7.70
2019,03,30,02,00,7.70
2019,03,30,02,01,7.70
2019,03,30,02,02,7.60
2019,03,30,02,03,7.60
2019,03,30,02,04,7.60
2019,03,30,02,05,7.50
2019,03,30,02,06,7.50
2019,03,30,02,07,7.50
2019,03,30,02,08,7.50
2019,03,30,02,09,7.40
2019,03,30,02,10,7.40
2019,03,30,02,11,7.40
2019,03,30,02,12,7.40
2019,03,30,02,13,7.30
2019,03,30,02,14,7.30
2019,03,30,02,15,7.30
2019,03,30,02,16,7.30
2019,03,30,02,17,7.30
2019,03,30,02,18,7.30
2019,03,30,02,19,7.30
2019,03,30,02,20,7.40
2019,03,30,02,21,7.40
2019,03,30,02,22,7.50
2019,03,30,02,23,7.60
2019,03,30,02,24,7.70
2019,03,30,02,25,7.80
2019,03,30,02,26,7.80
2019,03,30,02,27,7.90
2019,03,30,02,28,8.00
2019,03,30,02,29,8.10
2019,03,30,02,30,8.10
2019,03,30,02,31,8.20
2019,03,30,02,32,8.20
2019,03,30,02,33,8.20
2019,03,30,02,34,8.30
2019,03,30,02,35,8.40
2019,03,30,02,36,8.40
2019,03,30,02,37,8.50
2019,03,30,02,38,8.50
2019,03,30,02,39,8.60
2019,03,30,02,40,8.60
2019,03,30,02,41,8.60
2019,03,30,02,42,8.60
2019,03,30,02,43,8.60
2019,03,30,02,44,8.70
2019,03,30,02,45,8.70
2019,03,30,02,46,8.70
2019,03,30,02,47,8.70
2019,03,30,02,48,8.70
2019,03,30,02,49,8.80
2019,03,30,02,50,8.80
2019,03,30,02,51,8.80
2019,03,30,02,52,8.80
2019,03,30,02,53,8.80
2019,03,30,02,54,8.70
2019,03,30,02,55,8.70
2019,03,30,02,56,8.70
2019,03,30,02,57,8.60
2019,03,30,02,58,8.60
2019,03,30,02,59,8.50
2019,03,30,03,00,8.50
2019,03,30,03,01,8.50
2019,03,30,03,02,8.50
2019,03,30,03,03,8.50
2019,03,30,03,04,8.50
2019,03,30,03,05,8.50
2019,03,30,03,06,8.50
2019,03,30,03,07,8.50
2019,03,30,03,08,8.50
2019,03,30,03,09,8.50
2019,03,30,03,10,8.50
2019,03,30,03,11,8.50
2019,03,30,03,12,8.50
2019,03,30,03,13,8.50
2019,03,30,03,14,8.40
2019,03,30,03,15,8.40
2019,03,30,03,16,8.30
2019,03,30,03,17,8.20
2019,03,30,03,18,8.20
2019,03,30,03,19,8.10
2019,03,30,03,20,8.10
2019,03,30,03,21,8.00
2019,03,30,03,22,8.00
2019,03,30,03,23,8.00
2019,03,30,03,24,8.00
2019,03,30,03,25,8.00
2019,03,30,03,26,8.00
2019,03,30,03,27,8.00
2019,03,30,03,28,7.90
2019,03,30,03,29,7.80
2019,03,30,03,30,7.80
2019,03,30,03,31,7.90
2019,03,30,03,32,7.90
2019,03,30,03,33,7.90
2019,03,30,03,34,7.90
2019,03,30,03,35,7.90
2019,03,30,03,36,7.90
2019,03,30,03,37,7.90
2019,03,30,03,38,7.90
2019,03,30,03,39,7.90
2019,03,30,03,40,7.90
2019,03,30,03,41,7.90
2019,03,30,03,42,7.80
2019,03,30,03,43,7.80
2019,03,30,03,44,7.80
2019,03,30,03,45,7.80
2019,03,30,03,46,7.80
2019,03,30,03,47,7.70
2019,03,30,03,48,7.70
2019,03,30,03,49,7.60
2019,03,30,03,50,7.60
2019,03,30,03,51,7.60
2019,03,30,03,52,7.50
2019,03,30,03,53,7.50
2019,03,30,03,54,7.50
2019,03,30,03,55,7.50
2019,03,30,03,56,7.40
2019,03,30,03,57,7.40
2019,03,30,03,58,7.30
2019,03,30,03,59,7.30
2019,03,30,04,00,7.30
2019,03,30,04,01,7.30
2019,03,30,04,02,7.30
2019,03,30,04,03,7.30
2019,03,30,04,04,7.40
2019,03,30,04,05,7.40
2019,03,30,04,06,7.40
2019,03,30,04,07,7.40
2019,03,30,04,08,7.40
2019,03,30,04,09,7.40
2019,03,30,04,10,7.30
2019,03,30,04,11,7.30
2019,03,30,04,12,7.30
2019,03,30,04,13,7.30
2019,03,30,04,14,7.30
2019,03,30,04,15,7.20
2019,03,30,04,16,7.20
2019,03,30,04,17,7.20
2019,03,30,04,18,7.10
2019,03,30,04,19,7.10
2019,03,30,04,20,7.10
2019,03,30,04,21,7.10
2019,03,30,04,22,7.00
2019,03,30,04,23,7.00
2019,03,30,04,24,7.00
2019,03,30,04,25,7.00
2019,03,30,04,26,6.90
2019,03,30,04,27,6.90
2019,03,30,04,28,6.90
2019,03,30,04,29,6.80
2019,03,30,04,30,6.80
2019,03,30,04,31,6.80
2019,03,30,04,32,6.80
2019,03,30,04,33,6.80
2019,03,30,04,34,6.80
2019,03,30,04,35,6.80
2019,03,30,04,36,6.80
2019,03,30,04,37,6.70
2019,03,30,04,38,6.70
2019,03,30,04,39,6.70
2019,03,30,04,40,6.60
2019,03,30,04,41,6.60
2019,03,30,04,42,6.60
2019,03,30,04,43,6.50
2019,03,30,04,44,6.50
2019,03,30,04,45,6.50
2019,03,30,04,46,6.40
2019,03,30,04,47,6.40
2019,03,30,04,48,6.40
2019,03,30,04,49,6.40
2019,03,30,04,50,6.40
2019,03,30,04,51,6.30
2019,03,30,04,52,6.30
2019,03,30,04,53,6.30
2019,03,30,04,54,6.30
2019,03,30,04,55,6.30
2019,03,30,04,56,6.30
2019,03,30,04,57,6.30
2019,03,30,04,58,6.30
2019,03,30,04,59,6.40
2019,03,30,05,00,6.40
2019,03,30,05,01,6.40
2019,03,30,05,02,6.40
2019,03,30,05,03,6.40
2019,03,30,05,04,6.40
2019,03,30,05,05,6.40
2019,03,30,05,06,6.40
2019,03,30,05,07,6.40
2019,03,30,05,08,6.30
2019,03,30,05,09,6.30
2019,03,30,05,10,6.30
2019,03,30,05,11,6.30
2019,03,30,05,12,6.30
2019,03,30,05,13,6.30
2019,03,30,05,14,6.30
2019,03,30,05,15,6.30
2019,03,30,05,16,6.30
2019,03,30,05,17,6.40
2019,03,30,05,18,6.40
2019,03,30,05,19,6.50
2019,03,30,05,20,6.50
2019,03,30,05,21,6.50
2019,03,30,05,22,6.50
2019,03,30,05,23,6.40
2019,03,30,05,24,6.40
2019,03,30,05,25,6.40
2019,03,30,05,26,6.40
2019,03,30,05,27,6.40
2019,03,30,05,28,6.50
2019,03,30,05,29,6.40
2019,03,30,05,30,6.40
2019,03,30,05,31,6.40
2019,03,30,05,32,6.40
2019,03,30,05,33,6.40
2019,03,30,05,34,6.40
2019,03,30,05,35,6.30
2019,03,30,05,36,6.30
2019,03,30,05,37,6.30
2019,03,30,05,38,6.30
2019,03,30,05,39,6.30
2019,03,30,05,40,6.30
2019,03,30,05,41,6.30
2019,03,30,05,42,6.30
2019,03,30,05,43,6.30
2019,03,30,05,44,6.30
2019,03,30,05,45,6.30
2019,03,30,05,46,6.30
2019,03,30,05,47,6.30
2019,03,30,05,48,6.30
2019,03,30,05,49,6.30
2019,03,30,05,50,6.30
2019,03,30,05,51,6.30
2019,03,30,05,52,6.30
2019,03,30,05,53,6.20
2019,03,30,05,54,6.20
2019,03,30,05,55,6.20
2019,03,30,05,56,6.20
2019,03,30,05,57,6.20
2019,03,30,05,58,6.20
2019,03,30,05,59,6.20
2019,03,30,06,00,6.20
2019,03,30,06,01,6.20
2019,03,30,06,02,6.20
2019,03,30,06,03,6.20
2019,03,30,06,04,6.20
2019,03,30,06,05,6.20
2019,03,30,06,06,6.20
2019,03,30,06,07,6.20
2019,03,30,06,08,6.20
2019,03,30,06,09,6.20
2019,03,30,06,10,6.10
2019,03,30,06,11,6.20
2019,03,30,06,12,6.20
2019,03,30,06,13,6.20
2019,03,30,06,14,6.20
2019,03,30,06,15,6.20
2019,03,30,06,16,6.20
2019,03,30,06,17,6.20
2019,03,30,06,18,6.20
2019,03,30,06,19,6.20
2019,03,30,06,20,6.20
2019,03,30,06,21,6.30
2019,03,30,06,22,6.30
2019,03,30,06,23,6.40
2019,03,30,06,24,6.40
2019,03,30,06,25,6.50
2019,03,30,06,26,6.50
2019,03,30,06,27,6.50
2019,03,30,06,28,6.50
2019,03,30,06,29,6.50
2019,03,30,06,30,6.50
2019,03,30,06,31,6.60
2019,03,30,06,32,6.60
2019,03,30,06,33,6.70
2019,03,30,06,34,6.70
2019,03,30,06,35,6.70
2019,03,30,06,36,6.70
2019,03,30,06,37,6.80
2019,03,30,06,38,6.80
2019,03,30,06,39,6.80
2019,03,30,06,40,6.80
2019,03,30,06,41,6.90
2019,03,30,06,42,6.90
2019,03,30,06,43,6.90
2019,03,30,06,44,6.90
2019,03,30,06,45,7.00
2019,03,30,06,46,7.00
2019,03,30,06,47,7.10
2019,03,30,06,48,7.10
2019,03,30,06,49,7.10
2019,03,30,06,50,7.20
2019,03,30,06,51,7.30
2019,03,30,06,52,7.30
2019,03,30,06,53,7.30
2019,03,30,06,54,7.40
2019,03,30,06,55,7.40
2019,03,30,06,56,7.50
2019,03,30,06,57,7.50
2019,03,30,06,58,7.50
2019,03,30,06,59,7.60
2019,03,30,07,00,7.60
2019,03,30,07,01,7.70
2019,03,30,07,02,7.70
2019,03,30,07,03,7.70
2019,03,30,07,04,7.70
2019,03,30,07,05,7.70
2019,03,30,07,06,7.80
2019,03,30,07,07,7.80
2019,03,30,07,08,7.80
2019,03,30,07,09,7.80
2019,03,30,07,10,7.80
2019,03,30,07,11,7.80
2019,03,30,07,12,7.70
2019,03,30,07,13,7.70
2019,03,30,07,14,7.70
2019,03,30,07,15,7.70
2019,03,30,07,16,7.70
2019,03,30,07,17,7.70
2019,03,30,07,18,7.80
2019,03,30,07,19,7.80
2019,03,30,07,20,7.80
2019,03,30,07,21,7.80
2019,03,30,07,22,7.80
2019,03,30,07,23,7.80
2019,03,30,07,24,7.90
2019,03,30,07,25,7.90
2019,03,30,07,26,7.90
2019,03,30,07,27,7.90
2019,03,30,07,28,7.90
2019,03,30,07,29,7.90
2019,03,30,07,30,7.90
2019,03,30,07,31,7.90
2019,03,30,07,32,7.90
2019,03,30,07,33,8.00
2019,03,30,07,34,8.00
2019,03,30,07,35,8.10
2019,03,30,07,36,8.10
2019,03,30,07,37,8.10
2019,03,30,07,38,8.20
2019,03,30,07,39,8.20
2019,03,30,07,40,8.30
2019,03,30,07,41,8.30
2019,03,30,07,42,8.30
2019,03,30,07,43,8.30
2019,03,30,07,44,8.30
2019,03,30,07,45,8.40
2019,03,30,07,46,8.40
2019,03,30,07,47,8.40
2019,03,30,07,48,8.40
2019,03,30,07,49,8.50
2019,03,30,07,50,8.50
2019,03,30,07,51,8.50
2019,03,30,07,52,8.50
2019,03,30,07,53,8.50
2019,03,30,07,54,8.50
2019,03,30,07,55,8.50
2019,03,30,07,56,8.50
2019,03,30,07,57,8.50
2019,03,30,07,58,8.60
2019,03,30,07,59,8.60
2019,03,30,08,00,8.60
2019,03,30,08,01,8.70
2019,03,30,08,02,8.80
2019,03,30,08,03,8.90
2019,03,30,08,04,8.90
2019,03,30,08,05,9.00
2019,03,30,08,06,9.00
2019,03,30,08,07,9.10
2019,03,30,08,08,9.10
2019,03,30,08,09,9.10
2019,03,30,08,10,9.20
2019,03,30,08,11,9.20
2019,03,30,08,12,9.20
2019,03,30,08,13,9.30
2019,03,30,08,14,9.30
2019,03,30,08,15,9.40
2019,03,30,08,16,9.40
2019,03,30,08,17,9.50
2019,03,30,08,18,9.50
2019,03,30,08,19,9.60
2019,03,30,08,20,9.70
2019,03,30,08,21,9.80
2019,03,30,08,22,9.80
2019,03,30,08,23,9.90
2019,03,30,08,24,9.90
2019,03,30,08,25,10.00
2019,03,30,08,26,10.10
2019,03,30,08,27,10.20
2019,03,30,08,28,10.30
2019,03,30,08,29,10.40
2019,03,30,08,30,10.50
2019,03,30,08,31,10.60
2019,03,30,08,32,10.60
2019,03,30,08,33,10.70
2019,03,30,08,34,10.90
2019,03,30,08,35,10.90
2019,03,30,08,36,11.00
2019,03,30,08,37,11.10
2019,03,30,08,38,11.20
2019,03,30,08,39,11.30
2019,03,30,08,40,11.40
2019,03,30,08,41,11.40
2019,03,30,08,42,11.50
2019,03,30,08,43,11.50
2019,03,30,08,44,11.60
2019,03,30,08,45,11.70
2019,03,30,08,46,11.70
2019,03,30,08,47,11.70
2019,03,30,08,48,11.80
2019,03,30,08,49,11.80
2019,03,30,08,50,11.80
2019,03,30,08,51,11.80
2019,03,30,08,52,11.80
2019,03,30,08,53,11.80
2019,03,30,08,54,11.90
2019,03,30,08,55,11.90
2019,03,30,08,56,11.90
2019,03,30,08,57,11.90
2019,03,30,08,58,12.00
2019,03,30,08,59,12.10
2019,03,30,09,00,12.10
2019,03,30,09,01,12.20
2019,03,30,09,02,12.20
2019,03,30,09,03,12.20
2019,03,30,09,04,12.20
2019,03,30,09,05,12.20
2019,03,30,09,06,12.20
2019,03,30,09,07,12.30
2019,03,30,09,08,12.30
2019,03,30,09,09,12.30
2019,03,30,09,10,12.30
2019,03,30,09,11,12.30
2019,03,30,09,12,12.30
2019,03,30,09,13,12.30
2019,03,30,09,14,12.20
2019,03,30,09,15,12.30
2019,03,30,09,16,12.30
2019,03,30,09,17,12.30
2019,03,30,09,18,12.20
2019,03,30,09,19,12.20
2019,03,30,09,20,12.20
2019,03,30,09,21,12.20
2019,03,30,09,22,12.20
2019,03,30,09,23,12.20
2019,03,30,09,24,12.20
2019,03,30,09,25,12.20
2019,03,30,09,26,12.20
2019,03,30,09,27,12.10
2019,03,30,09,28,12.10
2019,03,30,09,29,12.20
2019,03,30,09,30,12.20
2019,03,30,09,31,12.30
2019,03,30,09,32,12.30
2019,03,30,09,33,12.20
2019,03,30,09,34,12.30
2019,03,30,09,35,12.30
2019,03,30,09,36,12.40
2019,03,30,09,37,12.40
2019,03,30,09,38,12.40
2019,03,30,09,39,12.40
2019,03,30,09,40,12.40
2019,03,30,09,41,12.40
2019,03,30,09,42,12.40
2019,03,30,09,43,12.40
2019,03,30,09,44,12.30
2019,03,30,09,45,12.20
2019,03,30,09,46,12.10
2019,03,30,09,47,12.10
2019,03,30,09,48,12.10
2019,03,30,09,49,12.00
2019,03,30,09,50,11.90
2019,03,30,09,51,11.80
2019,03,30,09,52,11.70
2019,03,30,09,53,11.60
2019,03,30,09,54,11.60
2019,03,30,09,55,11.60
2019,03,30,09,56,11.50
2019,03,30,09,57,11.50
2019,03,30,09,58,11.40
2019,03,30,09,59,11.30
2019,03,30,10,00,11.30
2019,03,30,10,01,11.20
2019,03,30,10,02,11.20
2019,03,30,10,03,11.10
2019,03,30,10,04,11.10
2019,03,30,10,05,10.90
2019,03,30,10,06,10.80
2019,03,30,10,07,10.60
2019,03,30,10,08,10.50
2019,03,30,10,09,10.40
2019,03,30,10,10,10.30
2019,03,30,10,11,10.20
2019,03,30,10,12,10.10
2019,03,30,10,13,10.10
2019,03,30,10,14,10.10
2019,03,30,10,15,10.10
2019,03,30,10,16,10.20
2019,03,30,10,17,10.20
2019,03,30,10,18,10.30
2019,03,30,10,19,10.30
2019,03,30,10,20,10.40
2019,03,30,10,21,10.50
2019,03,30,10,22,10.60
2019,03,30,10,23,10.60
2019,03,30,10,24,10.70
2019,03,30,10,25,10.80
2019,03,30,10,26,10.90
2019,03,30,10,27,11.00
2019,03,30,10,28,11.10
2019,03,30,10,29,11.20
2019,03,30,10,30,11.20
2019,03,30,10,31,11.30
2019,03,30,10,32,11.30
2019,03,30,10,33,11.40
2019,03,30,10,34,11.40
2019,03,30,10,35,11.50
2019,03,30,10,36,11.40
2019,03,30,10,37,11.30
2019,03,30,10,38,11.20
2019,03,30,10,39,11.10
2019,03,30,10,40,11.00
2019,03,30,10,41,10.90
2019,03,30,10,42,10.90
2019,03,30,10,43,11.00
2019,03,30,10,44,11.00
2019,03,30,10,45,11.10
2019,03,30,10,46,11.30
2019,03,30,10,47,11.40
2019,03,30,10,48,11.50
2019,03,30,10,49,11.70
2019,03,30,10,50,11.80
2019,03,30,10,51,11.90
2019,03,30,10,52,11.90
2019,03,30,10,53,12.00
2019,03,30,10,54,12.00
2019,03,30,10,55,12.00
2019,03,30,10,56,12.00
2019,03,30,10,57,12.00
2019,03,30,10,58,11.90
2019,03,30,10,59,11.90
2019,03,30,11,00,12.00
2019,03,30,11,01,12.00
2019,03,30,11,02,11.90
2019,03,30,11,03,11.80
2019,03,30,11,04,11.80
2019,03,30,11,05,11.80
2019,03,30,11,06,11.80
2019,03,30,11,07,11.80
2019,03,30,11,08,11.70
2019,03,30,11,09,11.60
2019,03,30,11,10,11.60
2019,03,30,11,11,11.60
2019,03,30,11,12,11.60
2019,03,30,11,13,11.70
2019,03,30,11,14,11.70
2019,03,30,11,15,11.80
2019,03,30,11,16,11.90
2019,03,30,11,17,12.00
2019,03,30,11,18,12.00
2019,03,30,11,19,12.10
2019,03,30,11,20,12.20
2019,03,30,11,21,12.20
2019,03,30,11,22,12.30
2019,03,30,11,23,12.30
2019,03,30,11,24,12.40
2019,03,30,11,25,12.40
2019,03,30,11,26,12.50
2019,03,30,11,27,12.60
2019,03,30,11,28,12.60
2019,03,30,11,29,12.50
2019,03,30,11,30,12.50
2019,03,30,11,31,12.50
2019,03,30,11,32,12.40
2019,03,30,11,33,12.40
2019,03,30,11,34,12.50
2019,03,30,11,35,12.50
2019,03,30,11,36,12.50
2019,03,30,11,37,12.60
2019,03,30,11,38,12.60
2019,03,30,11,39,12.60
2019,03,30,11,40,12.60
2019,03,30,11,41,12.70
2019,03,30,11,42,12.70
2019,03,30,11,43,12.80
2019,03,30,11,44,12.80
2019,03,30,11,45,12.80
2019,03,30,11,46,12.80
2019,03,30,11,47,12.60
2019,03,30,11,48,12.50
2019,03,30,11,49,12.30
2019,03,30,11,50,12.20
2019,03,30,11,51,12.00
2019,03,30,11,52,11.80
2019,03,30,11,53,11.70
2019,03,30,11,54,11.50
2019,03,30,11,55,11.30
2019,03,30,11,56,11.30
2019,03,30,11,57,11.20
2019,03,30,11,58,11.10
2019,03,30,11,59,11.00
2019,03,30,12,00,10.90
2019,03,30,12,01,11.00
2019,03,30,12,02,11.10
2019,03,30,12,03,11.10
2019,03,30,12,04,11.10
2019,03,30,12,05,11.00
2019,03,30,12,06,10.90
2019,03,30,12,07,10.90
2019,03,30,12,08,10.90
2019,03,30,12,09,10.90
2019,03,30,12,10,10.90
2019,03,30,12,11,10.90
2019,03,30,12,12,10.90
2019,03,30,12,13,10.90
2019,03,30,12,14,10.80
2019,03,30,12,15,10.70
2019,03,30,12,16,10.60
2019,03,30,12,17,10.50
2019,03,30,12,18,10.50
2019,03,30,12,19,10.50
2019,03,30,12,20,10.50
2019,03,30,12,21,10.60
2019,03,30,12,22,10.70
2019,03,30,12,23,10.70
2019,03,30,12,24,10.80
2019,03,30,12,25,10.80
2019,03,30,12,26,10.80
2019,03,30,12,27,10.80
2019,03,30,12,28,10.80
2019,03,30,12,29,10.90
2019,03,30,12,30,10.90
2019,03,30,12,31,10.90
2019,03,30,12,32,10.90
2019,03,30,12,33,10.90
2019,03,30,12,34,10.90
2019,03,30,12,35,10.90
2019,03,30,12,36,11.00
2019,03,30,12,37,11.00
2019,03,30,12,38,11.00
2019,03,30,12,39,11.00
2019,03,30,12,40,11.00
2019,03,30,12,41,11.00
2019,03,30,12,42,11.10
2019,03,30,12,43,11.00
2019,03,30,12,44,11.00
2019,03,30,12,45,11.10
2019,03,30,12,46,11.20
2019,03,30,12,47,11.30
2019,03,30,12,48,11.30
2019,03,30,12,49,11.30
2019,03,30,12,50,11.30
2019,03,30,12,51,11.40
2019,03,30,12,52,11.30
2019,03,30,12,53,11.40
2019,03,30,12,54,11.30
2019,03,30,12,55,11.30
2019,03,30,12,56,11.40
2019,03,30,12,57,11.40
2019,03,30,12,58,11.40
2019,03,30,12,59,11.40
2019,03,30,13,00,11.30
2019,03,30,13,01,11.30
2019,03,30,13,02,11.40
2019,03,30,13,03,11.40
2019,03,30,13,04,11.50
2019,03,30,13,05,11.60
2019,03,30,13,06,11.70
2019,03,30,13,07,11.80
2019,03,30,13,08,11.90
2019,03,30,13,09,12.00
2019,03,30,13,10,12.10
2019,03,30,13,11,12.10
2019,03,30,13,12,12.10
2019,03,30,13,13,12.10
2019,03,30,13,14,12.20
2019,03,30,13,15,12.20
2019,03,30,13,16,12.20
2019,03,30,13,17,12.30
2019,03,30,13,18,12.30
2019,03,30,13,19,12.40
2019,03,30,13,20,12.40
2019,03,30,13,21,12.40
2019,03,30,13,22,12.40
2019,03,30,13,23,12.40
2019,03,30,13,24,12.30
2019,03,30,13,25,12.20
2019,03,30,13,26,12.10
2019,03,30,13,27,12.10
2019,03,30,13,28,12.00
2019,03,30,13,29,12.00
2019,03,30,13,30,11.90
2019,03,30,13,31,11.90
2019,03,30,13,32,11.90
2019,03,30,13,33,11.80
2019,03,30,13,34,11.80
2019,03,30,13,35,11.80
2019,03,30,13,36,11.70
2019,03,30,13,37,11.70
2019,03,30,13,38,11.70
2019,03,30,13,39,11.70
2019,03,30,13,40,11.70
2019,03,30,13,41,11.70
2019,03,30,13,42,11.70
2019,03,30,13,43,11.60
2019,03,30,13,44,11.60
2019,03,30,13,45,11.70
2019,03,30,13,46,11.70
2019,03,30,13,47,11.60
2019,03,30,13,48,11.60
2019,03,30,13,49,11.60
2019,03,30,13,50,11.70
2019,03,30,13,51,11.70
2019,03,30,13,52,11.70
2019,03,30,13,53,11.80
2019,03,30,13,54,11.80
2019,03,30,13,55,11.80
2019,03,30,13,56,11.80
2019,03,30,13,57,11.80
2019,03,30,13,58,11.80
2019,03,30,13,59,11.70
2019,03,30,14,00,11.70
2019,03,30,14,01,11.80
2019,03,30,14,02,11.80
2019,03,30,14,03,11.80
2019,03,30,14,04,11.80
2019,03,30,14,05,11.80
2019,03,30,14,06,11.80
2019,03,30,14,07,11.90
2019,03,30,14,08,12.00
2019,03,30,14,09,12.10
2019,03,30,14,10,12.20
2019,03,30,14,11,12.30
2019,03,30,14,12,12.30
2019,03,30,14,13,12.30
2019,03,30,14,14,12.30
2019,03,30,14,15,12.30
2019,03,30,14,16,12.30
2019,03,30,14,17,12.30
2019,03,30,14,18,12.30
2019,03,30,14,19,12.30
2019,03,30,14,20,12.30
2019,03,30,14,21,12.30
2019,03,30,14,22,12.30
2019,03,30,14,23,12.40
2019,03,30,14,24,12.40
2019,03,30,14,25,12.40
2019,03,30,14,26,12.40
2019,03,30,14,27,12.40
2019,03,30,14,28,12.30
2019,03,30,14,29,12.30
2019,03,30,14,30,12.30
2019,03,30,14,31,12.40
2019,03,30,14,32,12.40
2019,03,30,14,33,12.40
2019,03,30,14,34,12.40
2019,03,30,14,35,12.40
2019,03,30,14,36,12.40
2019,03,30,14,37,12.40
2019,03,30,14,38,12.50
2019,03,30,14,39,12.50
2019,03,30,14,40,12.60
2019,03,30,14,41,12.70
2019,03,30,14,42,12.80
2019,03,30,14,43,12.80
2019,03,30,14,44,12.80
2019,03,30,14,45,12.80
2019,03,30,14,46,12.80
2019,03,30,14,47,12.80
2019,03,30,14,48,12.90
2019,03,30,14,49,13.00
2019,03,30,14,50,13.00
2019,03,30,14,51,13.10
2019,03,30,14,52,13.10
2019,03,30,14,53,13.10
2019,03,30,14,54,13.10
2019,03,30,14,55,13.10
2019,03,30,14,56,13.10
2019,03,30,14,57,13.10
2019,03,30,14,58,13.10
2019,03,30,14,59,13.10
2019,03,30,15,00,13.10
2019,03,30,15,01,13.10
2019,03,30,15,02,13.10
2019,03,30,15,03,13.10
2019,03,30,15,04,13.10
2019,03,30,15,05,13.10
2019,03,30,15,06,13.10
2019,03,30,15,07,13.10
2019,03,30,15,08,13.10
2019,03,30,15,09,13.10
2019,03,30,15,10,13.10
2019,03,30,15,11,13.10
2019,03,30,15,12,13.00
2019,03,30,15,13,12.90
2019,03,30,15,14,12.90
2019,03,30,15,15,12.90
2019,03,30,15,16,12.80
2019,03,30,15,17,12.80
2019,03,30,15,18,12.70
2019,03,30,15,19,12.70
2019,03,30,15,20,12.70
2019,03,30,15,21,12.70
2019,03,30,15,22,12.60
2019,03,30,15,23,12.60
2019,03,30,15,24,12.60
2019,03,30,15,25,12.60
2019,03,30,15,26,12.60
2019,03,30,15,27,12.60
2019,03,30,15,28,12.60
2019,03,30,15,29,12.60
2019,03,30,15,30,12.60
2019,03,30,15,31,12.60
2019,03,30,15,32,12.60
2019,03,30,15,33,12.60
2019,03,30,15,34,12.60
2019,03,30,15,35,12.60
2019,03,30,15,36,12.60
2019,03,30,15,37,12.60
2019,03,30,15,38,12.60
2019,03,30,15,39,12.60
2019,03,30,15,40,12.60
2019,03,30,15,41,12.60
2019,03,30,15,42,12.60
2019,03,30,15,43,12.50
2019,03,30,15,44,12.50
2019,03,30,15,45,12.40
2019,03,30,15,46,12.40
2019,03,30,15,47,12.40
2019,03,30,15,48,12.40
2019,03,30,15,49,12.50
2019,03,30,15,50,12.50
2019,03,30,15,51,12.50
2019,03,30,15,52,12.60
2019,03,30,15,53,12.60
2019,03,30,15,54,12.60
2019,03,30,15,55,12.60
2019,03,30,15,56,12.60
2019,03,30,15,57,12.60
2019,03,30,15,58,12.60
2019,03,30,15,59,12.60
2019,03,30,16,00,12.60
2019,03,30,16,01,12.60
2019,03,30,16,02,12.60
2019,03,30,16,03,12.70
2019,03,30,16,04,12.80
2019,03,30,16,05,12.80
2019,03,30,16,06,12.90
2019,03,30,16,07,13.00
2019,03,30,16,08,13.10
2019,03,30,16,09,13.10
2019,03,30,16,10,13.20
2019,03,30,16,11,13.30
2019,03,30,16,12,13.30
2019,03,30,16,13,13.40
2019,03,30,16,14,13.50
2019,03,30,16,15,13.60
2019,03,30,16,16,13.70
2019,03,30,16,17,13.80
2019,03,30,16,18,14.00
2019,03,30,16,19,14.10
2019,03,30,16,20,14.20
2019,03,30,16,21,14.30
2019,03,30,16,22,14.40
2019,03,30,16,23,14.50
2019,03,30,16,24,14.60
2019,03,30,16,25,14.70
2019,03,30,16,26,14.80
2019,03,30,16,27,14.90
2019,03,30,16,28,15.00
2019,03,30,16,29,15.00
2019,03,30,16,30,15.10
2019,03,30,16,31,15.00
2019,03,30,16,32,15.00
2019,03,30,16,33,14.90
2019,03,30,16,34,14.90
2019,03,30,16,35,14.80
2019,03,30,16,36,14.80
2019,03,30,16,37,14.80
2019,03,30,16,38,14.90
2019,03,30,16,39,14.90
2019,03,30,16,40,14.90
2019,03,30,16,41,14.90
2019,03,30,16,42,14.90
2019,03,30,16,43,15.00
2019,03,30,16,44,15.00
2019,03,30,16,45,15.10
2019,03,30,16,46,15.10
2019,03,30,16,47,15.10
2019,03,30,16,48,15.00
2019,03,30,16,49,15.00
2019,03,30,16,50,15.00
2019,03,30,16,51,14.90
2019,03,30,16,52,14.90
2019,03,30,16,53,14.90
2019,03,30,16,54,14.90
2019,03,30,16,55,14.90
2019,03,30,16,56,14.80
2019,03,30,16,57,14.80
2019,03,30,16,58,14.80
2019,03,30,16,59,14.80
2019,03,30,17,00,14.70
2019,03,30,17,01,14.70
2019,03,30,17,02,14.70
2019,03,30,17,03,14.70
2019,03,30,17,04,14.70
2019,03,30,17,05,14.60
2019,03,30,17,06,14.60
2019,03,30,17,07,14.70
2019,03,30,17,08,14.70
2019,03,30,17,09,14.70
2019,03,30,17,10,14.80
2019,03,30,17,11,14.80
2019,03,30,17,12,14.80
2019,03,30,17,13,14.90
2019,03,30,17,14,14.90
2019,03,30,17,15,14.90
2019,03,30,17,16,15.00
2019,03,30,17,17,15.00
2019,03,30,17,18,15.10
2019,03,30,17,19,15.10
2019,03,30,17,20,15.10
2019,03,30,17,21,15.10
2019,03,30,17,22,15.10
2019,03,30,17,23,15.00
2019,03,30,17,24,15.00
2019,03,30,17,25,15.00
2019,03,30,17,26,15.00
2019,03,30,17,27,15.00
2019,03,30,17,28,15.00
2019,03,30,17,29,15.00
2019,03,30,17,30,15.00
2019,03,30,17,31,15.10
2019,03,30,17,32,15.00
2019,03,30,17,33,15.00
2019,03,30,17,34,15.00
2019,03,30,17,35,14.90
2019,03,30,17,36,14.90
2019,03,30,17,37,14.90
2019,03,30,17,38,14.90
2019,03,30,17,39,14.90
2019,03,30,17,40,14.90
2019,03,30,17,41,14.90